Time,TemperatureF,DewpointF,PressureIn,WindDirection,WindDirectionDegrees,WindSpeedMPH,WindSpeedGustMPH,Humidity,HourlyPrecipIn,Conditions,Clouds,dailyrainin,SoftwareType,DateUTC
2013-03-02 00:02:00,23.5,16.8,30.19,North,360,3.0,11.0,75,0.00,,---,0.00,VWS V14.00,2013-03-02 05:02:00,
2013-03-02 00:07:00,23.5,16.8,30.19,NNW,340,2.0,11.0,75,0.00,,---,0.00,VWS V14.00,2013-03-02 05:07:00,
2013-03-02 00:12:00,23.4,16.7,30.19,North,360,4.0,11.0,75,0.00,,---,0.00,VWS V14.00,2013-03-02 05:12:00,
2013-03-02 00:17:00,23.4,16.7,30.19,NNW,331,6.0,11.0,75,0.00,,---,0.00,VWS V14.00,2013-03-02 05:17:00,
2013-03-02 00:22:00,23.3,16.6,30.19,NW,321,4.0,11.0,75,0.00,,---,0.00,VWS V14.00,2013-03-02 05:22:00,
2013-03-02 00:27:00,23.3,16.6,30.19,North,360,9.0,11.0,75,0.00,,---,0.00,VWS V14.00,2013-03-02 05:27:00,
2013-03-02 00:37:00,23.3,16.9,30.19,NNW,329,7.0,8.0,76,0.00,,---,0.00,VWS V14.00,2013-03-02 05:37:00,
2013-03-02 00:42:00,23.2,16.8,30.19,WNW,291,4.0,10.0,76,0.00,,---,0.00,VWS V14.00,2013-03-02 05:42:00,
2013-03-02 00:47:00,23.2,16.8,30.19,NNW,337,3.0,10.0,76,0.00,,---,0.00,VWS V14.00,2013-03-02 05:47:00,
2013-03-02 00:52:00,23.1,16.7,30.18,NW,319,5.0,10.0,76,0.00,,---,0.00,VWS V14.00,2013-03-02 05:52:00,
2013-03-02 00:57:00,23.1,16.7,30.19,WNW,294,3.0,10.0,76,0.00,,---,0.00,VWS V14.00,2013-03-02 05:57:00,
2013-03-02 01:02:00,23.1,16.7,30.19,NNW,329,2.0,9.0,76,0.00,,---,0.00,VWS V14.00,2013-03-02 06:02:00,
2013-03-02 01:07:00,23.1,16.7,30.18,NNW,331,2.0,9.0,76,0.00,,---,0.00,VWS V14.00,2013-03-02 06:07:00,
2013-03-02 01:12:00,23.1,16.7,30.18,NW,311,3.0,9.0,76,0.00,,---,0.00,VWS V14.00,2013-03-02 06:12:00,
2013-03-02 01:17:00,23.2,16.8,30.19,NNW,338,2.0,10.0,76,0.00,,---,0.00,VWS V14.00,2013-03-02 06:17:00,
2013-03-02 01:22:00,23.3,16.9,30.19,NW,317,4.0,10.0,76,0.00,,---,0.00,VWS V14.00,2013-03-02 06:22:00,
2013-03-02 01:27:00,23.2,16.8,30.19,NW,325,4.0,10.0,76,0.00,,---,0.00,VWS V14.00,2013-03-02 06:27:00,
2013-03-02 01:32:00,23.2,16.8,30.19,NW,308,2.0,6.0,76,0.00,,---,0.00,VWS V14.00,2013-03-02 06:32:00,
2013-03-02 01:37:00,23.0,16.9,30.19,NW,320,2.0,6.0,77,0.00,,---,0.00,VWS V14.00,2013-03-02 06:37:00,
2013-03-02 01:42:00,23.0,16.6,30.19,NW,314,3.0,8.0,76,0.00,,---,0.00,VWS V14.00,2013-03-02 06:42:00,
2013-03-02 01:47:00,22.9,16.8,30.19,NW,316,4.0,8.0,77,0.00,,---,0.00,VWS V14.00,2013-03-02 06:47:00,
2013-03-02 01:52:00,22.8,16.4,30.19,WNW,303,3.0,8.0,76,0.00,,---,0.00,VWS V14.00,2013-03-02 06:52:00,
2013-03-02 01:57:00,22.8,16.7,30.18,WNW,291,3.0,8.0,77,0.00,,---,0.00,VWS V14.00,2013-03-02 06:57:00,
2013-03-02 02:02:00,22.8,16.7,30.19,NW,314,4.0,6.0,77,0.00,,---,0.00,VWS V14.00,2013-03-02 07:02:00,
2013-03-02 02:07:00,22.8,16.7,30.18,NNW,330,2.0,6.0,77,0.00,,---,0.00,VWS V14.00,2013-03-02 07:07:00,
2013-03-02 02:12:00,22.7,16.6,30.18,NW,311,2.0,8.0,77,0.00,,---,0.00,VWS V14.00,2013-03-02 07:12:00,
2013-03-02 02:17:00,22.7,16.6,30.18,NW,321,3.0,8.0,77,0.00,,---,0.00,VWS V14.00,2013-03-02 07:17:00,
2013-03-02 02:22:00,22.8,16.7,30.18,NW,316,4.0,8.0,77,0.00,,---,0.00,VWS V14.00,2013-03-02 07:22:00,
2013-03-02 02:27:00,22.7,16.6,30.18,NNW,334,2.0,3.0,77,0.00,,---,0.00,VWS V14.00,2013-03-02 07:27:00,
2013-03-02 02:32:00,22.8,16.7,30.18,NW,304,4.0,7.0,77,0.00,,---,0.00,VWS V14.00,2013-03-02 07:32:00,
2013-03-02 02:37:00,22.7,16.6,30.18,NW,305,4.0,8.0,77,0.00,,---,0.00,VWS V14.00,2013-03-02 07:37:00,
2013-03-02 02:42:00,22.7,16.6,30.18,WNW,296,4.0,8.0,77,0.00,,---,0.00,VWS V14.00,2013-03-02 07:42:00,
2013-03-02 02:48:00,22.7,16.9,30.18,NNW,344,3.0,8.0,78,0.00,,---,0.00,VWS V14.00,2013-03-02 07:48:00,
2013-03-02 02:53:00,22.7,16.9,30.18,NW,324,5.0,8.0,78,0.00,,---,0.00,VWS V14.00,2013-03-02 07:53:00,
2013-03-02 02:58:00,22.7,16.9,30.17,NNW,340,6.0,6.0,78,0.00,,---,0.00,VWS V14.00,2013-03-02 07:58:00,
2013-03-02 03:03:00,22.8,17.0,30.18,NW,315,2.0,8.0,78,0.00,,---,0.00,VWS V14.00,2013-03-02 08:03:00,
2013-03-02 03:08:00,22.8,17.3,30.17,North,350,3.0,8.0,79,0.00,,---,0.00,VWS V14.00,2013-03-02 08:08:00,
2013-03-02 03:13:00,22.8,17.3,30.17,WNW,287,9.0,10.0,79,0.00,,---,0.00,VWS V14.00,2013-03-02 08:13:00,
2013-03-02 03:18:00,22.8,17.3,30.17,NNW,332,7.0,12.0,79,0.00,,---,0.00,VWS V14.00,2013-03-02 08:18:00,
2013-03-02 03:23:00,22.8,17.3,30.17,NW,313,7.0,12.0,79,0.00,,---,0.00,VWS V14.00,2013-03-02 08:23:00,
2013-03-02 03:28:00,22.7,17.2,30.17,WNW,300,2.0,4.0,79,0.00,,---,0.00,VWS V14.00,2013-03-02 08:28:00,
2013-03-02 03:33:00,22.5,17.0,30.17,WNW,290,3.0,7.0,79,0.00,,---,0.00,VWS V14.00,2013-03-02 08:33:00,
2013-03-02 03:38:00,22.3,16.8,30.17,NNW,333,5.0,10.0,79,0.00,,---,0.00,VWS V14.00,2013-03-02 08:38:00,
2013-03-02 03:43:00,22.2,16.7,30.17,NW,322,5.0,10.0,79,0.00,,---,0.00,VWS V14.00,2013-03-02 08:43:00,
2013-03-02 03:48:00,22.1,16.6,30.17,NNW,329,3.0,10.0,79,0.00,,---,0.00,VWS V14.00,2013-03-02 08:48:00,
2013-03-02 03:53:00,22.1,16.6,30.17,NW,316,3.0,10.0,79,0.00,,---,0.00,VWS V14.00,2013-03-02 08:53:00,
2013-03-02 03:58:00,22.0,16.8,30.17,NW,311,4.0,5.0,80,0.00,,---,0.00,VWS V14.00,2013-03-02 08:58:00,
2013-03-02 04:03:00,22.0,16.8,30.17,NNW,328,4.0,6.0,80,0.00,,---,0.00,VWS V14.00,2013-03-02 09:03:00,
2013-03-02 04:08:00,22.0,16.8,30.17,NNW,333,3.0,7.0,80,0.00,,---,0.00,VWS V14.00,2013-03-02 09:08:00,
2013-03-02 04:13:00,22.0,16.8,30.17,NNW,331,4.0,10.0,80,0.00,,---,0.00,VWS V14.00,2013-03-02 09:13:00,
2013-03-02 04:18:00,22.0,16.8,30.17,NNW,333,3.0,10.0,80,0.00,,---,0.00,VWS V14.00,2013-03-02 09:18:00,
2013-03-02 04:23:00,22.0,16.8,30.17,NW,319,8.0,10.0,80,0.00,,---,0.00,VWS V14.00,2013-03-02 09:23:00,
2013-03-02 04:28:00,22.0,17.1,30.17,NW,317,6.0,6.0,81,0.00,,---,0.00,VWS V14.00,2013-03-02 09:28:00,
2013-03-02 04:33:00,22.0,17.1,30.17,NW,307,2.0,7.0,81,0.00,,---,0.00,VWS V14.00,2013-03-02 09:33:00,
2013-03-02 04:38:00,22.0,17.1,30.17,NNW,329,2.0,9.0,81,0.00,,---,0.00,VWS V14.00,2013-03-02 09:38:00,
2013-03-02 04:43:00,22.0,17.1,30.17,West,279,1.0,9.0,81,0.00,,---,0.00,VWS V14.00,2013-03-02 09:43:00,
2013-03-02 04:48:00,21.8,16.9,30.17,NW,307,2.0,9.0,81,0.00,,---,0.00,VWS V14.00,2013-03-02 09:48:00,
2013-03-02 04:53:00,21.8,16.9,30.17,WNW,288,5.0,9.0,81,0.00,,---,0.00,VWS V14.00,2013-03-02 09:53:00,
2013-03-02 04:58:00,21.6,16.7,30.17,NW,321,4.0,4.0,81,0.00,,---,0.00,VWS V14.00,2013-03-02 09:58:00,
2013-03-02 05:03:00,21.4,16.8,30.17,WNW,300,4.0,9.0,82,0.00,,---,0.00,VWS V14.00,2013-03-02 10:03:00,
2013-03-02 05:08:00,21.3,16.4,30.17,WNW,296,5.0,9.0,81,0.00,,---,0.00,VWS V14.00,2013-03-02 10:08:00,
2013-03-02 05:13:00,21.3,16.7,30.17,NNW,329,6.0,9.0,82,0.00,,---,0.00,VWS V14.00,2013-03-02 10:13:00,
2013-03-02 05:18:00,21.3,16.7,30.17,NNW,332,6.0,9.0,82,0.00,,---,0.00,VWS V14.00,2013-03-02 10:18:00,
2013-03-02 05:23:00,21.3,16.7,30.17,NW,311,4.0,9.0,82,0.00,,---,0.00,VWS V14.00,2013-03-02 10:23:00,
2013-03-02 05:28:00,21.3,16.7,30.17,NW,315,4.0,7.0,82,0.00,,---,0.00,VWS V14.00,2013-03-02 10:28:00,
2013-03-02 05:33:00,21.3,16.7,30.17,NNW,329,4.0,10.0,82,0.00,,---,0.00,VWS V14.00,2013-03-02 10:33:00,
2013-03-02 05:38:00,21.4,16.8,30.17,NW,321,4.0,10.0,82,0.00,,---,0.00,VWS V14.00,2013-03-02 10:38:00,
2013-03-02 05:43:00,21.4,16.8,30.17,NNW,340,3.0,10.0,82,0.00,,---,0.00,VWS V14.00,2013-03-02 10:43:00,
2013-03-02 05:48:00,21.4,16.8,30.17,NW,313,4.0,10.0,82,0.00,,---,0.00,VWS V14.00,2013-03-02 10:48:00,
2013-03-02 05:53:00,21.3,16.7,30.17,WNW,293,1.0,10.0,82,0.00,,---,0.00,VWS V14.00,2013-03-02 10:53:00,
2013-03-02 05:58:00,21.3,16.7,30.17,NNW,330,4.0,5.0,82,0.00,,---,0.00,VWS V14.00,2013-03-02 10:58:00,
2013-03-02 06:03:00,21.3,16.7,30.17,NW,306,2.0,8.0,82,0.00,,---,0.00,VWS V14.00,2013-03-02 11:03:00,
2013-03-02 06:08:00,21.3,16.7,30.17,NW,306,2.0,8.0,82,0.00,,---,0.00,VWS V14.00,2013-03-02 11:08:00,
2013-03-02 06:13:00,21.3,17.0,30.17,WNW,292,2.0,8.0,83,0.00,,---,0.00,VWS V14.00,2013-03-02 11:13:00,
2013-03-02 06:18:00,21.4,17.0,30.17,WNW,295,3.0,8.0,83,0.00,,---,0.00,VWS V14.00,2013-03-02 11:18:00,
2013-03-02 06:23:00,21.4,17.0,30.17,NW,313,3.0,9.0,83,0.00,,---,0.00,VWS V14.00,2013-03-02 11:23:00,
2013-03-02 06:28:00,21.4,17.0,30.17,NW,311,5.0,6.0,83,0.00,,---,0.00,VWS V14.00,2013-03-02 11:28:00,
2013-03-02 06:33:00,21.5,17.1,30.17,WNW,302,3.0,6.0,83,0.00,,---,0.00,VWS V14.00,2013-03-02 11:33:00,
2013-03-02 06:38:00,21.5,17.1,30.17,NNW,330,5.0,8.0,83,0.00,,---,0.00,VWS V14.00,2013-03-02 11:38:00,
2013-03-02 06:43:00,21.5,17.1,30.17,NNW,335,6.0,10.0,83,0.00,,---,0.00,VWS V14.00,2013-03-02 11:43:00,
2013-03-02 06:48:00,21.4,17.0,30.17,NW,325,5.0,10.0,83,0.00,,---,0.00,VWS V14.00,2013-03-02 11:48:00,
2013-03-02 06:53:00,21.4,17.0,30.17,NNW,344,3.0,10.0,83,0.00,,---,0.00,VWS V14.00,2013-03-02 11:53:00,
2013-03-02 06:58:00,21.4,17.0,30.18,WNW,303,5.0,7.0,83,0.00,,---,0.00,VWS V14.00,2013-03-02 11:58:00,
2013-03-02 07:03:00,21.5,17.1,30.18,NNW,348,5.0,7.0,83,0.00,,---,0.00,VWS V14.00,2013-03-02 12:03:00,
2013-03-02 07:08:00,21.5,17.4,30.18,NW,312,2.0,8.0,84,0.00,,---,0.00,VWS V14.00,2013-03-02 12:08:00,
2013-03-02 07:13:00,21.5,17.4,30.18,NNW,336,7.0,9.0,84,0.00,,---,0.00,VWS V14.00,2013-03-02 12:13:00,
2013-03-02 07:18:00,21.4,17.0,30.18,NW,321,7.0,9.0,83,0.00,,---,0.00,VWS V14.00,2013-03-02 12:18:00,
2013-03-02 07:23:00,21.4,17.3,30.18,NW,306,2.0,9.0,84,0.00,,---,0.00,VWS V14.00,2013-03-02 12:23:00,
2013-03-02 07:28:00,21.4,17.3,30.18,NW,321,4.0,7.0,84,0.00,,---,0.00,VWS V14.00,2013-03-02 12:28:00,
2013-03-02 07:33:00,21.4,17.3,30.18,NW,315,3.0,8.0,84,0.00,,---,0.00,VWS V14.00,2013-03-02 12:33:00,
2013-03-02 07:39:00,21.4,17.3,30.18,NNW,331,2.0,9.0,84,0.00,,---,0.00,VWS V14.00,2013-03-02 12:39:00,
2013-03-02 07:44:00,21.4,17.3,30.18,NNW,329,5.0,9.0,84,0.00,,---,0.00,VWS V14.00,2013-03-02 12:44:00,
2013-03-02 07:49:00,21.4,17.3,30.18,NW,317,1.0,10.0,84,0.00,,---,0.00,VWS V14.00,2013-03-02 12:49:00,
2013-03-02 07:54:00,21.5,17.4,30.19,NNW,338,2.0,10.0,84,0.00,,---,0.00,VWS V14.00,2013-03-02 12:54:00,
2013-03-02 07:59:00,21.5,17.4,30.18,WNW,302,4.0,7.0,84,0.00,,---,0.00,VWS V14.00,2013-03-02 12:59:00,
2013-03-02 08:04:00,21.5,17.1,30.18,NNW,332,3.0,11.0,83,0.00,,---,0.00,VWS V14.00,2013-03-02 13:04:00,
2013-03-02 08:09:00,21.5,17.1,30.18,WNW,294,4.0,11.0,83,0.00,,---,0.00,VWS V14.00,2013-03-02 13:09:00,
2013-03-02 08:14:00,21.5,17.1,30.18,NW,314,3.0,11.0,83,0.00,,---,0.00,VWS V14.00,2013-03-02 13:14:00,
2013-03-02 08:19:00,21.5,17.1,30.19,NNW,340,8.0,11.0,83,0.00,,---,0.00,VWS V14.00,2013-03-02 13:19:00,
2013-03-02 08:24:00,21.5,17.1,30.19,WNW,302,1.0,11.0,83,0.00,,---,0.00,VWS V14.00,2013-03-02 13:24:00,
2013-03-02 08:29:00,21.4,17.0,30.19,NW,311,10.0,10.0,83,0.00,,---,0.00,VWS V14.00,2013-03-02 13:29:00,
2013-03-02 08:34:00,21.4,17.0,30.19,NW,306,1.0,12.0,83,0.00,,---,0.00,VWS V14.00,2013-03-02 13:34:00,
2013-03-02 08:39:00,21.5,17.4,30.19,NNW,327,2.0,12.0,84,0.00,,---,0.00,VWS V14.00,2013-03-02 13:39:00,
2013-03-02 08:44:00,21.5,17.4,30.19,NNW,334,4.0,12.0,84,0.00,,---,0.00,VWS V14.00,2013-03-02 13:44:00,
2013-03-02 08:49:00,21.4,17.3,30.19,NW,321,3.0,12.0,84,0.00,,---,0.00,VWS V14.00,2013-03-02 13:49:00,
2013-03-02 08:54:00,21.5,17.4,30.19,NNW,329,4.0,12.0,84,0.00,,---,0.00,VWS V14.00,2013-03-02 13:54:00,
2013-03-02 08:59:00,21.6,17.5,30.19,NW,323,3.0,11.0,84,0.00,,---,0.00,VWS V14.00,2013-03-02 13:59:00,
2013-03-02 09:04:00,21.6,17.5,30.19,NNW,344,6.0,11.0,84,0.00,,---,0.00,VWS V14.00,2013-03-02 14:04:00,
2013-03-02 09:09:00,21.7,17.6,30.19,North,9,5.0,11.0,84,0.00,,---,0.00,VWS V14.00,2013-03-02 14:09:00,
2013-03-02 09:14:00,21.8,17.7,30.19,NW,309,3.0,11.0,84,0.00,,---,0.00,VWS V14.00,2013-03-02 14:14:00,
2013-03-02 09:19:00,21.9,17.5,30.19,NNW,329,5.0,11.0,83,0.00,,---,0.00,VWS V14.00,2013-03-02 14:19:00,
2013-03-02 09:24:00,21.9,17.5,30.19,NW,311,5.0,11.0,83,0.00,,---,0.00,VWS V14.00,2013-03-02 14:24:00,
2013-03-02 09:29:00,21.9,17.5,30.19,NW,305,5.0,10.0,83,0.00,,---,0.00,VWS V14.00,2013-03-02 14:29:00,
2013-03-02 09:34:00,22.0,17.6,30.19,NW,324,6.0,10.0,83,0.00,,---,0.00,VWS V14.00,2013-03-02 14:34:00,
2013-03-02 09:39:00,22.1,17.7,30.19,NNW,348,6.0,10.0,83,0.00,,---,0.00,VWS V14.00,2013-03-02 14:39:00,
2013-03-02 09:44:00,22.3,17.9,30.19,North,360,2.0,10.0,83,0.00,,---,0.00,VWS V14.00,2013-03-02 14:44:00,
2013-03-02 09:49:00,22.4,17.8,30.19,NNW,341,5.0,10.0,82,0.00,,---,0.00,VWS V14.00,2013-03-02 14:49:00,
2013-03-02 09:54:00,22.4,17.8,30.19,NW,320,4.0,11.0,82,0.00,,---,0.00,VWS V14.00,2013-03-02 14:54:00,
2013-03-02 09:59:00,22.5,17.6,30.19,North,5,4.0,9.0,81,0.00,,---,0.00,VWS V14.00,2013-03-02 14:59:00,
2013-03-02 10:04:00,22.6,17.7,30.19,NNW,328,9.0,11.0,81,0.00,,---,0.00,VWS V14.00,2013-03-02 15:04:00,
2013-03-02 10:09:00,22.8,17.6,30.19,NNW,333,8.0,11.0,80,0.00,,---,0.00,VWS V14.00,2013-03-02 15:09:00,
2013-03-02 10:14:00,22.7,17.5,30.19,NNW,335,8.0,12.0,80,0.00,,---,0.00,VWS V14.00,2013-03-02 15:14:00,
2013-03-02 10:19:00,22.7,17.5,30.19,NW,319,6.0,12.0,80,0.00,,---,0.00,VWS V14.00,2013-03-02 15:19:00,
2013-03-02 10:24:00,22.9,17.7,30.19,NNW,334,6.0,12.0,80,0.00,,---,0.00,VWS V14.00,2013-03-02 15:24:00,
2013-03-02 10:29:00,22.8,17.3,30.19,NW,319,7.0,10.0,79,0.00,,---,0.00,VWS V14.00,2013-03-02 15:29:00,
2013-03-02 10:34:00,22.8,17.3,30.19,WNW,301,1.0,10.0,79,0.00,,---,0.00,VWS V14.00,2013-03-02 15:34:00,
2013-03-02 10:39:00,23.0,17.2,30.19,NW,312,6.0,11.0,78,0.00,,---,0.00,VWS V14.00,2013-03-02 15:39:00,
2013-03-02 10:44:00,22.9,17.1,30.19,NNW,340,6.0,13.0,78,0.00,,---,0.00,VWS V14.00,2013-03-02 15:44:00,
2013-03-02 10:49:00,22.9,16.8,30.19,NNW,347,3.0,13.0,77,0.00,,---,0.00,VWS V14.00,2013-03-02 15:49:00,
2013-03-02 10:54:00,22.8,16.7,30.19,WNW,299,6.0,13.0,77,0.00,,---,0.00,VWS V14.00,2013-03-02 15:54:00,
2013-03-02 10:59:00,22.8,16.7,30.19,NW,304,4.0,11.0,77,0.00,,---,0.00,VWS V14.00,2013-03-02 15:59:00,
2013-03-02 11:04:00,23.0,16.9,30.19,North,355,7.0,11.0,77,0.00,,---,0.00,VWS V14.00,2013-03-02 16:04:00,
2013-03-02 11:09:00,22.9,16.8,30.19,NW,307,7.0,11.0,77,0.00,,---,0.00,VWS V14.00,2013-03-02 16:09:00,
2013-03-02 11:14:00,23.1,17.0,30.19,NW,304,2.0,11.0,77,0.00,,---,0.00,VWS V14.00,2013-03-02 16:14:00,
2013-03-02 11:19:00,23.0,16.6,30.19,NNE,22,9.0,12.0,76,0.00,,---,0.00,VWS V14.00,2013-03-02 16:19:00,
2013-03-02 11:24:00,23.1,17.0,30.19,NW,325,1.0,12.0,77,0.00,,---,0.00,VWS V14.00,2013-03-02 16:24:00,
2013-03-02 11:29:00,23.2,16.8,30.19,NW,323,8.0,12.0,76,0.00,,---,0.00,VWS V14.00,2013-03-02 16:29:00,
2013-03-02 11:34:00,23.3,16.9,30.19,WNW,288,9.0,12.0,76,0.00,,---,0.00,VWS V14.00,2013-03-02 16:34:00,
2013-03-02 11:39:00,23.5,17.1,30.19,NW,317,1.0,12.0,76,0.00,,---,0.00,VWS V14.00,2013-03-02 16:39:00,
2013-03-02 11:44:00,23.7,17.0,30.19,NW,315,8.0,12.0,75,0.00,,---,0.00,VWS V14.00,2013-03-02 16:44:00,
2013-03-02 11:49:00,23.5,16.8,30.19,NW,313,5.0,12.0,75,0.00,,---,0.00,VWS V14.00,2013-03-02 16:49:00,
2013-03-02 11:54:00,23.7,16.6,30.19,WNW,289,5.0,12.0,74,0.00,,---,0.00,VWS V14.00,2013-03-02 16:54:00,
2013-03-02 11:59:00,23.8,16.7,30.19,North,355,3.0,9.0,74,0.00,,---,0.00,VWS V14.00,2013-03-02 16:59:00,
2013-03-02 12:04:00,24.1,17.0,30.19,NNW,332,6.0,9.0,74,0.00,,---,0.00,VWS V14.00,2013-03-02 17:04:00,
2013-03-02 12:09:00,24.2,16.8,30.19,NNW,331,4.0,9.0,73,0.00,,---,0.00,VWS V14.00,2013-03-02 17:09:00,
2013-03-02 12:14:00,24.3,16.9,30.19,NNW,333,6.0,11.0,73,0.00,,---,0.00,VWS V14.00,2013-03-02 17:14:00,
2013-03-02 12:19:00,24.5,17.4,30.19,NW,315,4.0,11.0,74,0.00,,---,0.00,VWS V14.00,2013-03-02 17:19:00,
2013-03-02 12:24:00,24.6,16.9,30.19,NNW,335,1.0,11.0,72,0.00,,---,0.00,VWS V14.00,2013-03-02 17:24:00,
2013-03-02 12:29:00,24.6,16.9,30.19,NNW,327,4.0,8.0,72,0.00,,---,0.00,VWS V14.00,2013-03-02 17:29:00,
2013-03-02 12:34:00,24.7,16.6,30.18,WNW,284,5.0,11.0,71,0.00,,---,0.00,VWS V14.00,2013-03-02 17:34:00,
2013-03-02 12:39:00,24.5,16.8,30.18,NNW,338,3.0,11.0,72,0.00,,---,0.00,VWS V14.00,2013-03-02 17:39:00,
2013-03-02 12:44:00,24.6,16.9,30.18,WNW,292,5.0,11.0,72,0.00,,---,0.00,VWS V14.00,2013-03-02 17:44:00,
2013-03-02 12:49:00,24.7,17.0,30.18,NW,317,3.0,11.0,72,0.00,,---,0.00,VWS V14.00,2013-03-02 17:49:00,
2013-03-02 12:54:00,24.9,17.2,30.18,NNW,329,10.0,11.0,72,0.00,,---,0.00,VWS V14.00,2013-03-02 17:54:00,
2013-03-02 12:59:00,24.8,17.1,30.18,NW,311,8.0,8.0,72,0.00,,---,0.00,VWS V14.00,2013-03-02 17:59:00,
2013-03-02 13:04:00,24.9,16.8,30.18,North,360,5.0,11.0,71,0.00,,---,0.00,VWS V14.00,2013-03-02 18:04:00,
2013-03-02 13:09:00,25.0,16.9,30.18,NW,321,1.0,11.0,71,0.00,,---,0.00,VWS V14.00,2013-03-02 18:09:00,
2013-03-02 13:14:00,25.1,17.0,30.17,NW,311,4.0,12.0,71,0.00,,---,0.00,VWS V14.00,2013-03-02 18:14:00,
2013-03-02 13:19:00,25.1,17.0,30.17,NW,316,8.0,12.0,71,0.00,,---,0.00,VWS V14.00,2013-03-02 18:19:00,
2013-03-02 13:24:00,25.2,17.1,30.17,NW,310,3.0,12.0,71,0.00,,---,0.00,VWS V14.00,2013-03-02 18:24:00,
2013-03-02 13:29:00,25.4,17.3,30.17,WNW,286,7.0,11.0,71,0.00,,---,0.00,VWS V14.00,2013-03-02 18:29:00,
2013-03-02 13:34:00,25.3,17.2,30.17,NW,316,5.0,11.0,71,0.00,,---,0.00,VWS V14.00,2013-03-02 18:34:00,
2013-03-02 13:39:00,25.3,17.5,30.17,WNW,297,4.0,11.0,72,0.00,,---,0.00,VWS V14.00,2013-03-02 18:39:00,
2013-03-02 13:45:00,25.3,17.5,30.17,WNW,295,7.0,11.0,72,0.00,,---,0.00,VWS V14.00,2013-03-02 18:45:00,
2013-03-02 13:50:00,25.6,17.8,30.16,NW,312,3.0,11.0,72,0.00,,---,0.00,VWS V14.00,2013-03-02 18:50:00,
2013-03-02 13:55:00,25.6,17.8,30.16,WNW,296,2.0,11.0,72,0.00,,---,0.00,VWS V14.00,2013-03-02 18:55:00,
2013-03-02 14:00:00,25.9,17.8,30.16,NNW,329,3.0,7.0,71,0.00,,---,0.00,VWS V14.00,2013-03-02 19:00:00,
2013-03-02 14:05:00,26.0,17.9,30.16,North,355,4.0,8.0,71,0.00,,---,0.00,VWS V14.00,2013-03-02 19:05:00,
2013-03-02 14:10:00,26.2,18.1,30.16,WNW,302,9.0,10.0,71,0.00,,---,0.00,VWS V14.00,2013-03-02 19:10:00,
2013-03-02 14:15:00,26.1,17.7,30.16,NW,321,5.0,10.0,70,0.00,,---,0.00,VWS V14.00,2013-03-02 19:15:00,
2013-03-02 14:20:00,26.1,17.7,30.16,North,355,3.0,10.0,70,0.00,,---,0.00,VWS V14.00,2013-03-02 19:20:00,
2013-03-02 14:25:00,26.2,17.8,30.16,WNW,290,6.0,10.0,70,0.00,,---,0.00,VWS V14.00,2013-03-02 19:25:00,
2013-03-02 14:30:00,26.2,17.8,30.16,NNW,344,5.0,6.0,70,0.00,,---,0.00,VWS V14.00,2013-03-02 19:30:00,
2013-03-02 14:35:00,26.3,17.5,30.16,WNW,301,4.0,9.0,69,0.00,,---,0.00,VWS V14.00,2013-03-02 19:35:00,
2013-03-02 14:40:00,26.4,18.0,30.16,WNW,300,2.0,9.0,70,0.00,,---,0.00,VWS V14.00,2013-03-02 19:40:00,
2013-03-02 14:45:00,26.4,17.6,30.16,WNW,287,2.0,9.0,69,0.00,,---,0.00,VWS V14.00,2013-03-02 19:45:00,
2013-03-02 14:50:00,26.5,17.7,30.16,NNW,333,3.0,9.0,69,0.00,,---,0.00,VWS V14.00,2013-03-02 19:50:00,
2013-03-02 14:55:00,26.8,18.3,30.16,North,5,2.0,9.0,70,0.00,,---,0.00,VWS V14.00,2013-03-02 19:55:00,
2013-03-02 15:00:00,27.0,17.9,30.16,NNW,329,5.0,7.0,68,0.00,,---,0.00,VWS V14.00,2013-03-02 20:00:00,
2013-03-02 15:05:00,26.9,18.1,30.16,North,355,5.0,7.0,69,0.00,,---,0.00,VWS V14.00,2013-03-02 20:05:00,
2013-03-02 15:10:00,26.9,17.8,30.16,NW,315,2.0,7.0,68,0.00,,---,0.00,VWS V14.00,2013-03-02 20:10:00,
2013-03-02 15:15:00,27.0,17.9,30.16,NNW,327,2.0,8.0,68,0.00,,---,0.00,VWS V14.00,2013-03-02 20:15:00,
2013-03-02 15:20:00,26.7,17.9,30.16,North,355,5.0,9.0,69,0.00,,---,0.00,VWS V14.00,2013-03-02 20:20:00,
2013-03-02 15:25:00,26.6,17.8,30.16,NW,313,5.0,9.0,69,0.00,,---,0.00,VWS V14.00,2013-03-02 20:25:00,
2013-03-02 15:30:00,26.5,17.7,30.16,NW,319,3.0,9.0,69,0.00,,---,0.00,VWS V14.00,2013-03-02 20:30:00,
2013-03-02 15:35:00,26.3,17.9,30.16,North,355,6.0,9.0,70,0.00,,---,0.00,VWS V14.00,2013-03-02 20:35:00,
2013-03-02 15:40:00,26.3,17.9,30.16,NNW,338,5.0,9.0,70,0.00,,---,0.00,VWS V14.00,2013-03-02 20:40:00,
2013-03-02 15:45:00,26.3,17.9,30.16,NW,325,3.0,9.0,70,0.00,,---,0.00,VWS V14.00,2013-03-02 20:45:00,
2013-03-02 15:50:00,26.3,17.5,30.16,NW,315,4.0,9.0,69,0.00,,---,0.00,VWS V14.00,2013-03-02 20:50:00,
2013-03-02 15:55:00,26.4,18.0,30.16,NNW,333,4.0,9.0,70,0.00,,---,0.00,VWS V14.00,2013-03-02 20:55:00,
2013-03-02 16:00:00,26.4,18.0,30.16,NNW,329,1.0,7.0,70,0.00,,---,0.00,VWS V14.00,2013-03-02 21:00:00,
2013-03-02 16:05:00,26.4,18.3,30.16,NW,318,4.0,7.0,71,0.00,,---,0.00,VWS V14.00,2013-03-02 21:05:00,
2013-03-02 16:10:00,26.3,17.5,30.16,NNW,340,3.0,8.0,69,0.00,,---,0.00,VWS V14.00,2013-03-02 21:10:00,
2013-03-02 16:15:00,26.3,17.5,30.16,NNW,327,2.0,8.0,69,0.00,,---,0.00,VWS V14.00,2013-03-02 21:15:00,
2013-03-02 16:20:00,26.2,17.4,30.16,NNW,340,5.0,8.0,69,0.00,,---,0.00,VWS V14.00,2013-03-02 21:20:00,
2013-03-02 16:25:00,26.1,17.3,30.16,NNW,333,5.0,8.0,69,0.00,,---,0.00,VWS V14.00,2013-03-02 21:25:00,
2013-03-02 16:30:00,26.0,17.6,30.16,WNW,296,3.0,5.0,70,0.00,,---,0.00,VWS V14.00,2013-03-02 21:30:00,
2013-03-02 16:35:00,26.0,17.2,30.16,NW,317,2.0,6.0,69,0.00,,---,0.00,VWS V14.00,2013-03-02 21:35:00,
2013-03-02 16:40:00,26.0,17.2,30.16,NW,313,5.0,7.0,69,0.00,,---,0.00,VWS V14.00,2013-03-02 21:40:00,
2013-03-02 16:45:00,26.0,17.2,30.16,North,355,6.0,7.0,69,0.00,,---,0.00,VWS V14.00,2013-03-02 21:45:00,
2013-03-02 16:50:00,26.2,17.4,30.16,North,355,1.0,7.0,69,0.00,,---,0.00,VWS V14.00,2013-03-02 21:50:00,
2013-03-02 16:55:00,26.4,17.6,30.16,NW,323,1.0,7.0,69,0.00,,---,0.00,VWS V14.00,2013-03-02 21:55:00,
2013-03-02 17:00:00,26.3,17.2,30.16,WNW,294,2.0,5.0,68,0.00,,---,0.00,VWS V14.00,2013-03-02 22:00:00,
2013-03-02 17:05:00,26.0,16.9,30.16,WNW,300,2.0,5.0,68,0.00,,---,0.00,VWS V14.00,2013-03-02 22:05:00,
2013-03-02 17:10:00,25.9,16.8,30.16,NW,304,2.0,5.0,68,0.00,,---,0.00,VWS V14.00,2013-03-02 22:10:00,
2013-03-02 17:15:00,25.8,17.0,30.16,NW,305,1.0,5.0,69,0.00,,---,0.00,VWS V14.00,2013-03-02 22:15:00,
2013-03-02 17:20:00,25.8,17.4,30.16,NW,304,1.0,5.0,70,0.00,,---,0.00,VWS V14.00,2013-03-02 22:20:00,
2013-03-02 17:25:00,25.7,17.3,30.16,WNW,300,3.0,5.0,70,0.00,,---,0.00,VWS V14.00,2013-03-02 22:25:00,
2013-03-02 17:30:00,25.6,17.2,30.16,WNW,301,1.0,4.0,70,0.00,,---,0.00,VWS V14.00,2013-03-02 22:30:00,
2013-03-02 17:36:00,25.5,17.4,30.16,WNW,301,0.0,4.0,71,0.00,,---,0.00,VWS V14.00,2013-03-02 22:36:00,
2013-03-02 17:42:00,25.5,17.4,30.17,WNW,301,1.0,4.0,71,0.00,,---,0.00,VWS V14.00,2013-03-02 22:42:00,
2013-03-02 17:47:00,25.5,17.4,30.17,WNW,302,2.0,4.0,71,0.00,,---,0.00,VWS V14.00,2013-03-02 22:47:00,
2013-03-02 17:52:00,25.5,17.4,30.17,WNW,302,0.0,4.0,71,0.00,,---,0.00,VWS V14.00,2013-03-02 22:52:00,
2013-03-02 17:57:00,25.4,17.3,30.17,NW,308,1.0,4.0,71,0.00,,---,0.00,VWS V14.00,2013-03-02 22:57:00,
2013-03-02 18:02:00,25.5,17.8,30.17,NW,308,1.0,3.0,72,0.00,,---,0.00,VWS V14.00,2013-03-02 23:02:00,
2013-03-02 18:07:00,25.5,17.4,30.17,NW,308,0.0,3.0,71,0.00,,---,0.00,VWS V14.00,2013-03-02 23:07:00,
2013-03-02 18:12:00,25.5,17.8,30.17,NW,307,0.0,3.0,72,0.00,,---,0.00,VWS V14.00,2013-03-02 23:12:00,
2013-03-02 18:17:00,25.5,17.4,30.17,NW,308,2.0,3.0,71,0.00,,---,0.00,VWS V14.00,2013-03-02 23:17:00,
2013-03-02 18:22:00,25.6,17.8,30.17,NW,307,0.0,3.0,72,0.00,,---,0.00,VWS V14.00,2013-03-02 23:22:00,
2013-03-02 18:27:00,25.5,17.4,30.17,NW,308,0.0,3.0,71,0.00,,---,0.00,VWS V14.00,2013-03-02 23:27:00,
2013-03-02 18:32:00,25.5,17.4,30.17,NW,307,1.0,3.0,71,0.00,,---,0.00,VWS V14.00,2013-03-02 23:32:00,
2013-03-02 18:37:00,25.4,17.3,30.17,NW,307,2.0,3.0,71,0.00,,---,0.00,VWS V14.00,2013-03-02 23:37:00,
2013-03-02 18:42:00,25.3,17.2,30.17,NW,308,1.0,3.0,71,0.00,,---,0.00,VWS V14.00,2013-03-02 23:42:00,
2013-03-02 18:47:00,25.3,17.2,30.17,NW,307,0.0,3.0,71,0.00,,---,0.00,VWS V14.00,2013-03-02 23:47:00,
2013-03-02 18:52:00,25.2,17.5,30.17,NW,307,0.0,3.0,72,0.00,,---,0.00,VWS V14.00,2013-03-02 23:52:00,
2013-03-02 18:57:00,25.1,17.4,30.16,NW,308,0.0,3.0,72,0.00,,---,0.00,VWS V14.00,2013-03-02 23:57:00,
2013-03-02 19:02:00,25.2,17.5,30.16,NW,307,1.0,1.0,72,0.00,,---,0.00,VWS V14.00,2013-03-03 00:02:00,
2013-03-02 19:07:00,25.2,17.5,30.17,NW,307,0.0,2.0,72,0.00,,---,0.00,VWS V14.00,2013-03-03 00:07:00,
2013-03-02 19:12:00,25.0,17.6,30.17,NW,307,0.0,2.0,73,0.00,,---,0.00,VWS V14.00,2013-03-03 00:12:00,
2013-03-02 19:17:00,24.9,17.5,30.17,NW,307,0.0,2.0,73,0.00,,---,0.00,VWS V14.00,2013-03-03 00:17:00,
2013-03-02 19:22:00,24.6,17.2,30.17,NW,307,0.0,2.0,73,0.00,,---,0.00,VWS V14.00,2013-03-03 00:22:00,
2013-03-02 19:27:00,24.4,17.3,30.17,NW,307,0.0,2.0,74,0.00,,---,0.00,VWS V14.00,2013-03-03 00:27:00,
2013-03-02 19:32:00,24.2,17.1,30.17,NW,308,0.0,0.0,74,0.00,,---,0.00,VWS V14.00,2013-03-03 00:32:00,
2013-03-02 19:37:00,24.0,17.2,30.17,NW,307,0.0,0.0,75,0.00,,---,0.00,VWS V14.00,2013-03-03 00:37:00,
2013-03-02 19:42:00,23.8,17.4,30.17,NW,307,0.0,0.0,76,0.00,,---,0.00,VWS V14.00,2013-03-03 00:42:00,
2013-03-02 19:47:00,23.8,17.0,30.16,NW,307,0.0,1.0,75,0.00,,---,0.00,VWS V14.00,2013-03-03 00:47:00,
2013-03-02 19:52:00,23.8,17.0,30.16,NW,308,0.0,1.0,75,0.00,,---,0.00,VWS V14.00,2013-03-03 00:52:00,
2013-03-02 19:57:00,23.8,17.0,30.16,NW,307,1.0,1.0,75,0.00,,---,0.00,VWS V14.00,2013-03-03 00:57:00,
2013-03-02 20:02:00,23.8,17.0,30.16,NW,307,1.0,1.0,75,0.00,,---,0.00,VWS V14.00,2013-03-03 01:02:00,
2013-03-02 20:07:00,23.8,17.4,30.16,NW,308,0.0,1.0,76,0.00,,---,0.00,VWS V14.00,2013-03-03 01:07:00,
2013-03-02 20:12:00,23.7,17.3,30.16,NW,307,0.0,1.0,76,0.00,,---,0.00,VWS V14.00,2013-03-03 01:12:00,
2013-03-02 20:17:00,23.6,17.2,30.16,NW,307,0.0,1.0,76,0.00,,---,0.00,VWS V14.00,2013-03-03 01:17:00,
2013-03-02 20:22:00,23.1,16.7,30.16,NW,307,0.0,1.0,76,0.00,,---,0.00,VWS V14.00,2013-03-03 01:22:00,
2013-03-02 20:27:00,22.4,16.3,30.16,NW,308,0.0,1.0,77,0.00,,---,0.00,VWS V14.00,2013-03-03 01:27:00,
2013-03-02 20:32:00,21.9,16.1,30.16,NW,308,0.0,0.0,78,0.00,,---,0.00,VWS V14.00,2013-03-03 01:32:00,
2013-03-02 20:37:00,21.7,16.2,30.16,NW,307,0.0,0.0,79,0.00,,---,0.00,VWS V14.00,2013-03-03 01:37:00,
2013-03-02 20:42:00,21.6,16.1,30.17,NW,307,0.0,0.0,79,0.00,,---,0.00,VWS V14.00,2013-03-03 01:42:00,
2013-03-02 20:47:00,21.4,15.9,30.16,NW,307,0.0,1.0,79,0.00,,---,0.00,VWS V14.00,2013-03-03 01:47:00,
2013-03-02 20:52:00,21.3,16.1,30.16,NW,307,0.0,1.0,80,0.00,,---,0.00,VWS V14.00,2013-03-03 01:52:00,
2013-03-02 20:57:00,21.3,16.1,30.16,NW,307,0.0,1.0,80,0.00,,---,0.00,VWS V14.00,2013-03-03 01:57:00,
2013-03-02 21:02:00,21.3,16.1,30.16,NW,308,1.0,2.0,80,0.00,,---,0.00,VWS V14.00,2013-03-03 02:02:00,
2013-03-02 21:07:00,21.4,16.2,30.16,NW,308,0.0,2.0,80,0.00,,---,0.00,VWS V14.00,2013-03-03 02:07:00,
2013-03-02 21:12:00,21.4,16.2,30.16,NW,307,0.0,2.0,80,0.00,,---,0.00,VWS V14.00,2013-03-03 02:12:00,
2013-03-02 21:17:00,21.3,16.4,30.16,NW,308,0.0,2.0,81,0.00,,---,0.00,VWS V14.00,2013-03-03 02:17:00,
2013-03-02 21:22:00,21.2,16.3,30.16,NW,307,0.0,2.0,81,0.00,,---,0.00,VWS V14.00,2013-03-03 02:22:00,
2013-03-02 21:27:00,21.3,16.4,30.17,NW,308,0.0,2.0,81,0.00,,---,0.00,VWS V14.00,2013-03-03 02:27:00,
2013-03-02 21:32:00,21.5,16.6,30.16,NW,307,0.0,2.0,81,0.00,,---,0.00,VWS V14.00,2013-03-03 02:32:00,
2013-03-02 21:37:00,21.7,16.8,30.16,NW,307,0.0,3.0,81,0.00,,---,0.00,VWS V14.00,2013-03-03 02:37:00,
2013-03-02 21:42:00,21.8,16.9,30.17,NW,321,0.0,3.0,81,0.00,,---,0.00,VWS V14.00,2013-03-03 02:42:00,
2013-03-02 21:47:00,21.8,16.9,30.17,NNE,22,2.0,4.0,81,0.00,,---,0.00,VWS V14.00,2013-03-03 02:47:00,
2013-03-02 21:52:00,21.9,17.0,30.17,NE,49,0.0,4.0,81,0.00,,---,0.00,VWS V14.00,2013-03-03 02:52:00,
2013-03-02 21:57:00,21.9,17.0,30.17,NE,47,2.0,4.0,81,0.00,,---,0.00,VWS V14.00,2013-03-03 02:57:00,
2013-03-02 22:07:00,22.2,17.3,30.17,NNE,25,2.0,4.0,81,0.00,,---,0.00,VWS V14.00,2013-03-03 03:07:00,
2013-03-02 22:12:00,22.3,17.1,30.17,North,9,3.0,4.0,80,0.00,,---,0.00,VWS V14.00,2013-03-03 03:12:00,
2013-03-02 22:17:00,22.2,17.0,30.17,NNE,15,2.0,4.0,80,0.00,,---,0.00,VWS V14.00,2013-03-03 03:17:00,
2013-03-02 22:22:00,22.2,17.0,30.17,NNE,23,2.0,4.0,80,0.00,,---,0.00,VWS V14.00,2013-03-03 03:22:00,
2013-03-02 22:27:00,22.1,16.9,30.17,NNE,15,0.0,4.0,80,0.00,,---,0.00,VWS V14.00,2013-03-03 03:27:00,
2013-03-02 22:32:00,22.0,16.8,30.17,NNE,19,1.0,7.0,80,0.00,,---,0.00,VWS V14.00,2013-03-03 03:32:00,
2013-03-02 22:37:00,21.9,16.7,30.17,North,9,2.0,7.0,80,0.00,,---,0.00,VWS V14.00,2013-03-03 03:37:00,
2013-03-02 22:42:00,21.8,16.6,30.17,North,9,4.0,7.0,80,0.00,,---,0.00,VWS V14.00,2013-03-03 03:42:00,
2013-03-02 22:47:00,21.6,16.4,30.16,NNE,13,0.0,7.0,80,0.00,,---,0.00,VWS V14.00,2013-03-03 03:47:00,
2013-03-02 22:52:00,21.5,16.3,30.16,North,9,1.0,7.0,80,0.00,,---,0.00,VWS V14.00,2013-03-03 03:52:00,
2013-03-02 22:57:00,21.4,16.2,30.16,North,9,0.0,7.0,80,0.00,,---,0.00,VWS V14.00,2013-03-03 03:57:00,
2013-03-02 23:02:00,21.2,16.3,30.16,North,360,1.0,4.0,81,0.00,,---,0.00,VWS V14.00,2013-03-03 04:02:00,
2013-03-02 23:07:00,21.1,16.2,30.16,North,360,2.0,4.0,81,0.00,,---,0.00,VWS V14.00,2013-03-03 04:07:00,
2013-03-02 23:12:00,20.9,16.0,30.16,North,360,2.0,4.0,81,0.00,,---,0.00,VWS V14.00,2013-03-03 04:12:00,
2013-03-02 23:17:00,20.8,16.2,30.16,North,360,0.0,4.0,82,0.00,,---,0.00,VWS V14.00,2013-03-03 04:17:00,
2013-03-02 23:22:00,20.6,16.0,30.16,North,360,1.0,4.0,82,0.00,,---,0.00,VWS V14.00,2013-03-03 04:22:00,
2013-03-02 23:27:00,20.5,15.9,30.16,North,360,1.0,4.0,82,0.00,,---,0.00,VWS V14.00,2013-03-03 04:27:00,
2013-03-02 23:32:00,20.4,16.1,30.16,North,360,1.0,3.0,83,0.00,,---,0.00,VWS V14.00,2013-03-03 04:32:00,
2013-03-02 23:37:00,20.4,16.1,30.16,North,360,1.0,3.0,83,0.00,,---,0.00,VWS V14.00,2013-03-03 04:37:00,
2013-03-02 23:42:00,20.3,16.0,30.16,North,360,2.0,3.0,83,0.00,,---,0.00,VWS V14.00,2013-03-03 04:42:00,
2013-03-02 23:47:00,20.3,16.0,30.16,NNW,337,2.0,3.0,83,0.00,,---,0.00,VWS V14.00,2013-03-03 04:47:00,
2013-03-02 23:52:00,20.2,15.9,30.15,WNW,296,0.0,4.0,83,0.00,,---,0.00,VWS V14.00,2013-03-03 04:52:00,
2013-03-02 23:58:00,20.2,15.9,30.16,WNW,296,3.0,3.0,83,0.00,,---,0.00,VWS V14.00,2013-03-03 04:58:00,